STARLINK-32469, 61721

Orbit data source: Space-Track

STARLINK-32469, 61721 is a payload satellite owned by SpaceX/Seattle (US) in LEO that was launched on Wed, 30 Oct 2024 UTC via an FALCON 9 launch vehicle from the Air Force Eastern Test Range (AFETR). Payload-class satellites include a variety of spacecraft equipped with specific instruments for various scientific and technological missions. These include communications satellites like Starlink; space stations such as the ISS; scientific satellites like the Hubble; Earth observation satellites from companies like Planet Labs, Umbra, and HawkEye 360; GPS; miniature CubeSats for education and research; and military/defense satellites.

Loading next visibility...
Identifier
61721, 2024-196Q
Orbit
LEO
Last TLE update
23 hours ago
Origin
Manufacturer
SpaceX/Seattle
Mission
Operational Commercial Communications
Bus & Motor
STARLINK V2M, Unknown motor
Mass
730 kg wet, ~700 kg dry
Launch date (UTC)
2024-10-30 (8 months ago)
Launch vehicle
FALCON 9
Launch site
Air Force Eastern Test Range (AFETR)
Object type
Payload
Rocket body
Debris
Shape & HBR
Box + 2 Pan, 29 m
Radar Cross Section
36.964 m², Large (>1 m²)

Expand to show TLE details & history

TLE from 23 hours ago
0 STARLINK-32469
1 61721U 24196Q   25181.47036303 -.00001150  00000-0 -26709-4 0  9999
2 61721  53.1589 192.6611 0001024  93.8501 266.2616 15.30188457 38540
Epoch: 2025-06-30T11:17Z
TLE epoch observation values (Epoch: 2025-06-30T11:17:19.365Z)
Latitude
-0.0001°
Longitude
104.55063°
Altitude
476.195 km
Speed
7.629 km/s
True Right ascension
12h 50m 38s
True Declination
0° 00' 00"
Sunlit
Object was in daylight at epoch
Visualization orbit readout
Latitude
-13.97993°
Longitude
-69.17446°
Altitude
479.133 km
Speed
7.626 km/s
Apparent Right ascension
04h 21m 56s
Apparent Declination
-46° 43' 05"
Sunlit
Object is in daylight
Visualization observer readout
Local Sidereal Time
21:43:59
Azimuth
125.696° SE
Elevation
-33.628°
Doppler factor
1
Orbital elements
Apogee altitude
476.208 km
Perigee altitude
474.804 km
Semi-major axis
6,853.643 km
Eccentricity
0.0001
Inclination
53.1589°
RAAN
192.6611°
Arg. of periapsis
93.8501°
True anomaly
Unknown
Mean anomaly
266.2616°
Eccentric anomaly
Unknown
Mean motion
3.82526 °/min
Orbital period
94.11 mins
BSTAR
-0.000026709
Loading maneuver chart data...
Loading SW <> Apogee altitude chart data...
Loading historical data...
Loading historical data...
Loading historical data...
Loading historical data...
Loading historical data...
Loading historical data...
Loading historical data...

STARLINK-32469 Visibility forecast

Observer location: undefined°, undefined°

Span
Click to sort rows by Start time (UTC) header in descending order
Start Az.
Max El. time (UTC)
Max El. Az.
Max El.
End time (UTC)
End Az.
4 mins2025-07-01 11:21:36.239Z269.66° W2025-07-01 11:23:36.239Z227.708° WSW19.848°2025-07-01 11:25:36.239Z188.258° SSW
5 mins2025-07-02 02:39:36.239Z191.708° SSW2025-07-02 02:41:36.239Z121.68° SE33.889°2025-07-02 02:44:36.239Z63.378° ENE
4 mins2025-07-02 04:17:36.239Z288.219° WNW2025-07-02 04:19:36.239Z338.439° N24.144°2025-07-02 04:21:36.239Z21.482° NNE
5 mins2025-07-02 09:14:36.239Z339.626° N2025-07-02 09:16:36.239Z47.445° ENE31.839°2025-07-02 09:19:36.239Z103.366° ESE
|